Location: Newark
(44.6028°N, 124.0883°W)
Time: 00:15:38
(UTC+00:00)

A-11 Canister half - Pass Details

Date: 30 October 2019
Orbit: 1514 x 1686 km, 47.2° (Epoch: 13 November)

Event Time Altitude Azimuth Distance (km) Brightness Sun altitude
Exits shadow 10:10:17 40° 74° (ENE) 2,235 9.9 -48.6°
Drops below altitude 10° 10:15:46 10° 82° (E) 3,795 11.5 -47.8°
Sets 10:18:49 0° 84° (E) 4,757 12.1 -47.4°
